Find Starlink 1277

NORAD ID: 45369 Int'l Des: 2020-019 Owner: SPXS Country: US Constellation: starlink operational
LEOCIRCULAR

現在のビュー

3D地球を読み込み中...

About Starlink 1277

Starlink 1277 (NORAD 45369) is a starlink constellation satellite (v1.0) launched Mar 18, 2020 by SPXS of US. It operates in LEO, CIRCULAR orbit with a mass of 260.00 kg.

Starlink 1277について

説明を読み込み中...

次回通過

Passes for default location (London). Set your location on the main map for personalized predictions.

高度履歴

Loading altitude history...

軌道要素

1 45369U 20019K 26168.99051711 .00040451 00000-0 40173-3 0 9997
2 45369 53.0417 25.8379 0003827 82.4851 277.6598 15.65372100345568
Epoch: Jun 17, 2026 • Age: 18 hours

現在のステータス

高度 393.0 km
速度 7.67 km/s
衛星直下点 -53.09°S, 123.36°E
打ち上げ日 Mar 18, 2020
運用期間 6.2 years
タイプ internet

技術仕様

分類 Payload
質量 260.00 kg
乾燥質量 248.00 kg
総質量 260.00 kg
長さ 0.20 m
直径 2.80 m
スパン 9.00 m
形状 Box + pan
製造者 SPXS
バスタイプ Starlink
フェーズステータス In Orbit
所有者/国 SPXS/US

Most Searched